Regional Weather Roundup
Issued by NWS

Home | Current Version | Previous Version | Text Only | Print | Product List | Glossary On
Versions: 1 2 3 4 5 6 7 8 9 10 11 12 13 14 15 16 17 18 19 20 21 22 23 24 25 26 27 28 29 30 31 32 33 34 35 36 37 38 39 40 41 42 43 44 45 46 47 48 49 50
000
ASCA44 KEWX 172220
RWRMX

LATIN AMERICA AND CARIBBEAN REGIONAL WEATHER ROUNDUP
NATIONAL WEATHER SERVICE AUSTIN/SAN ANTONIO TX
400 PM CST TUE JAN 17 2017

NOTE: "FAIR" INDICATED FEW OR NO CLOUDS BELOW 12,000 FEET WITH NO
SIGNIFICANT WEATHER AND/OR OBSTRUCTIONS TO VISIBILITY.

BAJA CALIFORNIA

CITY           SKY/WX    TMP DP  RH WIND       PRES   REMARKS
LORETO         MOSUNNY   66  55  68 NE17      30.01
LA PAZ         MOSUNNY   70  52  52 N13       30.02S
MEXICALI       SUNNY     66  28  24 NW6       30.07F
S.J. DEL CABO  MOSUNNY   73  50  43 S3        30.00S
TIJUANA        SUNNY     64  46  52 W13       30.07S

NORTHWESTERN MEXICO

CITY           SKY/WX    TMP DP  RH WIND       PRES   REMARKS
CULIACAN       SUNNY     75  43  31 W8        29.96F
DURANGO        PTSUNNY   61  39  44 SW20      30.10R
GUAYMAS        MOSUNNY   68  55  64 SW12      29.96F
HERMOSILLO     MOSUNNY   72  46  40 S6        30.02F
CD. JUAREZ     CLOUDY    50  39  66 N9        29.99S WCI  46
LOS MOCHIS     MOSUNNY   72  54  53 W12       30.01F
OBREGON        MOSUNNY   70  48  46 SW5       29.99F

NORTHEASTERN MEXICO

CITY           SKY/WX    TMP DP  RH WIND       PRES   REMARKS
CHIHUAHUA      PTSUNNY   64  27  24 S15       29.99S
MATAMOROS      PTSUNNY   79  72  78 SE16      29.89S
MONCLOVA       PTSUNNY   70  46  43 NE6       29.94
MONTERREY      CLOUDY    70  61  73 N3        29.90R
NUEVO LAREDO   CLOUDY    75  64  69 CALM      29.91F
PIEDRAS NEGRAS DRZL/FOG  61  55  82 NW7       30.01  VSB 1
REYNOSA        PTSUNNY   79  64  61 E12       29.88R
SALTILLO       CLOUDY    63  48  59 N9        30.03F
TORREON        PTSUNNY   75  43  31 SE17      29.91F
CD. VICTORIA   CLOUDY    81  59  47 S12       29.85S

WESTERN MEXICO

CITY           SKY/WX    TMP DP  RH WIND       PRES   REMARKS
AGUASCALIENTES PTSUNNY   72  25  17 S13       30.14F
COLIMA         PTSUNNY   79  64  61 SW17      30.03S
DEL BAJIO      PTSUNNY   72  37  28 SW7       30.20F
GUADALAJARA    PTSUNNY   75  32  20 SW5       30.09S
MANZANILLO     MOSUNNY   81  73  78 SW12      29.88S
MAZATLAN       PTSUNNY   70  61  73 SE3       29.98F
P. VALLARTA    CLOUDY    75  66  73 SW3       29.94F
URUAPAN        PTSUNNY   72  50  46 S9        30.14S
ZACATECAS      PTSUNNY   66  34  30 SW21G35   30.15S

CENTRAL MEXICO

CITY           SKY/WX    TMP DP  RH WIND       PRES   REMARKS
CUERNAVACA     PTSUNNY   81  45  28 S6        30.06F
MEXICO CITY    CLOUDY    72  41  33 SE12      30.20F
MORELIA        PTSUNNY   72  41  33 S14       30.15F
POZA RICA      PTSUNNY   84  70  61 CALM      29.92
PUEBLA         PTSUNNY   66  39  37 S14       30.23S
QUERETARO      PTSUNNY   72  41  33 W8        30.19F
S. LUIS POTOSI CLOUDY    72  32  23 S16       30.09F
TAMPICO        PTSUNNY   79  68  69 SE12      29.89F
TOLUCA         PTSUNNY   63  39  42 SE8       30.29F

SOUTHERN MEXICO

CITY           SKY/WX    TMP DP  RH WIND       PRES   REMARKS
ACAPULCO       MOSUNNY   84  72  65 SW9       29.89S
B. DE HUATULCO PTSUNNY   84  73  70 S12       29.93S HX  91
OAXACA         MOSUNNY   81  19  10 S8        30.12F
P. ESCONDIDO   MOSUNNY   82  73  74 CALM      29.97F
VERACRUZ       SUNNY     82  70  65 E12       29.88F
ZIHUATANEJO    MOSUNNY   86  72  62 S7        29.90F HX  92

YUCATAN PENINSULA

CITY           SKY/WX    TMP DP  RH WIND       PRES   REMARKS
CAMPECHE       MOSUNNY   90  66  45 E12G23    29.90S HX  92
CANCUN         MOSUNNY   81  68  65 SE15      30.06R
CHETUMAL       MOSUNNY   82  72  69 E12       29.99S
CD. DEL CARMEN MOSUNNY   88  68  51 SE13      29.90S HX  91
COZUMEL        MOSUNNY   81  70  69 SE14      30.03S
MERIDA         PTSUNNY   90  57  33 E7        29.96S
MINATITLAN     SUNNY     81  68  65 CALM      29.87F
TAPACHULA      SUNNY     88  73  62 W12       29.85F HX  96
TUX. GUTIERREZ MOSUNNY   90  54  29 NE7       29.88F
VILLAHERMOSA   PTSUNNY   84  70  61 NE7       29.92S

CENTRAL AMERICA

CITY           SKY/WX    TMP DP  RH WIND       PRES   REMARKS
BELIZE CITY    PTSUNNY   82  73  74 E12       29.98R
MANAGUA        PTCLDY    86  68  54 E18       29.83S

CARIBBEAN

CITY           SKY/WX    TMP DP  RH WIND       PRES   REMARKS
ARUBA          PTCLDY    75  72  88 SE8       29.92S
CURACAO        PTCLDY    79  72  78 E13       29.94R
KINGSTON       MOSUNNY   84  68  58 SE23      29.97S
NASSAU         PTCLDY    75  64  69 E3        30.19S
SAN JUAN       PTCLDY    79  66  65 NE12      30.06R
SANTO DOMINGO  PTCLDY    81  73  78 NE12      30.03R
ST. CROIX      PTCLDY    79  64  61 NE10      30.04
ST. KITTS      MOCLDY    77  68  73 NE21      30.00S
ST. MAARTEN    PTCLDY    79  64  61 E14       30.03R
ST. THOMAS     PTCLDY    77  66  69 NE12      30.04

$$





USA.gov is the U.S. government's official web portal to all federal, state and local government web resources and services.